Hourly Data Report for May 01, 2020

STE-ANNE-DE-BELLEVUE 1
QUEBEC
Current Station Operator: ECCC - MSC

45°25'38.000" N
73°55'45.000" W
39.00 m
702FHL8
71377
WVQ

Download Data

Hourly Data (May 2020)
Hourly Data Report for May 1, 2020
TIME
LST
Temp Definition
°C
Dew Point Definition
°C
Rel Hum Definition
%
Precip. Amount Definition
mm

Wind Dir Definition
10's deg

Wind Spd Definition
km/h
Visibility Definition
km
Stn Press Definition
kPa
Hmdx Definition


Wind Chill Definition


Weather Definition


00:00 10.8 6.6 75 0.0 11 22   100.28     LegendNANA
01:00 10.6 6.3 75 0.0 12 22   100.19     LegendNANA
02:00 10.4 6.9 79 0.0 11 19   100.09     LegendNANA
03:00 10.4 7.9 84 0.0 12 15   100.02     LegendNANA
04:00 11.0 8.3 84 0.0 13 15   99.97     LegendNANA
05:00 11.4 8.5 82 0.0 12 11   99.94     LegendNANA
06:00 12.0 8.8 81 0.0 17 7   100.01     LegendNANA
07:00 12.5 10.6 88 0.0 19 12   100.07     LegendNANA
08:00 13.3 11.4 88 0.0 24 16   100.12     LegendNANA
09:00 13.9 11.6 86 0.0 24 15   100.14     LegendNANA
10:00 13.1 12.1 94 1.4 26 14   100.14     LegendNANA
11:00 14.0 12.4 91 0.0 27 10   100.13     LegendNANA
12:00 15.3 11.8 80 0.0 24 10   100.07     LegendNANA
13:00 16.6 10.5 67 0.0 28 19   100.10     LegendNANA
14:00 14.7 10.0 73 0.0 29 25   100.12     LegendNANA
15:00 14.4 9.6 73 0.0 29 24   100.12     LegendNANA
16:00 14.1 7.5 65 0.0 31 22   100.14     LegendNANA
17:00 12.2 5.8 65 0.0 31 24   100.22     LegendNANA
18:00 11.3 3.3 58 0.0 33 26   100.34     LegendNANA
19:00 9.9 2.6 60 0.0 35 18   100.49     LegendNANA
20:00 8.3 1.2 61 0.0 36 15   100.64     LegendNANA
21:00 6.8 1.6 69 0.0 31 6   100.71     LegendNANA
22:00 7.4 1.5 66 0.0 29 6   100.76     LegendNANA
23:00 7.2 1.5 67 0.0 28 10   100.83     LegendNANA

Notes on Data Quality.

Legend

  • E = Estimated
  • M = Missing
  • NA = Not Available*
  • [empty] = Indicates an unobserved value
Date modified: